Find Starlink 3236

NORAD ID: 49750 Int'l Des: 2021-115 Owner: SPXS Country: US Constellation: starlink operational
LEOCIRCULAR

リアルタイム位置

3D地球を読み込み中...

Starlink 3236について

説明を読み込み中...

次回通過

Passes for default location (London). Set your location on the main map for personalized predictions.

高度履歴

Loading altitude history...

軌道要素

1 49750U 21115AC 26105.88828856 -.00000248 00000-0 25210-5 0 9992
2 49750 53.2190 342.1423 0001276 87.5161 272.5977 15.08835378241150
Epoch: Apr 15, 2026 • Age: 10 hours

現在のステータス

高度 541.4 km
速度 7.60 km/s
衛星直下点 33.04°N, 174.92°E
打ち上げ日 Dec 2, 2021
運用期間 4.3 years
タイプ internet

技術仕様

分類 Payload
質量 290.00 kg
乾燥質量 270.00 kg
総質量 290.00 kg
長さ 0.20 m
直径 2.80 m
スパン 9.00 m
形状 Box + pan
製造者 SPXS
バスタイプ Starlink
フェーズステータス In Orbit
所有者/国 SPXS/US

Most Searched